COSMOS 2538 (44424 NORAD) Tracking and Keplerian Element Data

This shows tracking and keplerian element data for the satellite.

Feedback or suggestion? Click here.




ElementValue
Catalog44424
NameCOSMOS 2538
Epoch Orbit438
Epoch Day221.3711976
Epoch Year2019
RAAN273.0073
Inclination97.8806
Eccentricity0.0010421
Argument of Perigee219.0371
Mean Anonmoly141.0092
Mean Motion14.84397114
Decay Rate5.97E-06
L11 44424U 19039D 19221.37119760 .00000597 00000-0 77401-4 0 9993
L22 44424 97.8806 273.0073 0010421 219.0371 141.0092 14.84397114 4385

Live tracking and technical data element details for COSMOS 2538 (NORAD 44424). COSMOS 2538 can be tracked NOW for your location showing map with azimuth and elevation plus other details from your city location.

Track the satellite on the map from your city or location and see movement details for azimuth, elevation, latitude, longitude, range, height, and movement on the map or in text.







IsCatalogInMostPopularTable: catalog: 44424, numindb: 35
Update: records affected: 1



GetName: 44424 COSMOS 2538

Hit Count: updated at: Thu, 05 Dec 2019 18:09:05 GMT